Hovedside
METAR-TAF:

METAR-TAF

Lufthavner :

Sveg, Sverige

Sveg lufthavn

breddegrad: 62-02-52N, lengdegrad: 014-25-22E, høyde over havet: 359 m

Gjeldene værobservasjon

Denne rapporten ble laget for 18 minutter siden, klokken 22:20 UTC
Flau vind
Temperatur 13°C
Luftfuktighet 88%
Trykk 1017 hPa
Sikt 10 km eller mer
lett regn

METAR: ESND 242220Z AUTO 00000KT 9999 -RA BKN030/// OVC042/// 13/11 Q1017

Tid: 00:38 (22:38 UTC)


TAF: fraværende

Værobservasjoner og værvarsel for over 4000 flyplasser (METAR- og TAF-rapporter).

Tilgjengelige stasjoner er representert av de røde og gule prikkene på kartet.

Hold musepekeren over prikken for å se navnet på stasjonen.

Klikk så for å se værobservasjoner og -varsler.

For å forandre kartet kan du klikke på den grønne knappen med svart kryss for å zoome inn, på den grønne knappen med strek for å zoome ut, eller på de grønne pilene for å se tilstøtende kart.


METAR-TAF: